CW3375 Weather Reports


time (UTC)temp
C
wind
direction
speed
KPH
gust
KPH
rain 1hr
cm
rain 24hr
cm
rain mn
cm
humidity
%
barometer
mb
20260504190534 23 226 11.3 25.7 0.00 0.00 0.00 99 1009.0
20260504185833 23 224 12.9 24.1 0.00 0.00 0.00 99 1009.0
20260504185133 23 214 12.9 24.1 0.00 0.00 0.00 99 1009.0
20260504184433 23 220 17.7 24.1 0.00 0.00 0.00 99 1009.0
20260504183733 23 231 8.0 17.7 0.00 0.00 0.00 99 1008.9
20260504183033 23 246 6.4 24.1 0.00 0.00 0.00 99 1008.9
20260504182333 25 224 11.3 17.7 0.00 0.00 0.00 99 1008.9
20260504181633 25 167 8.0 16.1 0.00 0.00 0.00 99 1008.9
20260504180933 24 192 8.0 16.1 0.00 0.00 0.00 99 1008.9
20260504180233 22 197 1.6 20.9 0.00 0.00 0.00 99 1008.9
20260504175533 22 226 14.5 20.9 0.00 0.00 0.00 99 1008.9
20260504174833 23 225 9.7 20.9 0.00 0.00 0.00 99 1008.9
20260504174215 23 195 8.0 19.3 0.00 0.00 0.00 99 1008.9
20260504173515 23 215 6.4 12.9 0.00 0.00 0.00 99 1009.0
20260504172815 23 96 0.0 6.4 0.00 0.00 0.00 99 1009.1
20260504172034 24 323 3.2 4.8 0.00 0.00 0.00 99 1009.1
20260504171333 24 147 1.6 9.7 0.00 0.00 0.00 99 1009.1
20260504170633 23 130 4.8 9.7 0.00 0.00 0.00 99 1009.1
20260504160333 19 13 8.0 14.5 0.00 0.00 0.00 97 1009.1
20260504150733 16 25 0.0 6.4 0.00 0.00 0.00 96 1009.3
20260504150115 16 26 1.6 4.8 0.00 0.00 0.00 96 1009.2
20260504141133 11 0.0 0.0 0.00 0.00 0.00 95 1009.0
20260504140515 11 0.0 0.0 0.00 0.00 0.00 95 1008.9
20260504130133 10 0.0 0.0 0.00 0.00 0.00 94 1008.5
20260504110233 11 0.0 0.0 0.00 0.00 0.00 94 1008.6
20260504081515 12 0.0 0.0 0.00 0.00 0.00 95 1008.1
20260504080733 13 0.0 1.6 0.00 0.00 0.00 95 1008.1
20260504080115 13 0.0 1.6 0.00 0.00 0.00 95 1008.1
20260504060133 15 160 0.0 3.2 0.00 0.00 0.00 96 1008.0
20260504050532 14 194 1.6 6.4 0.00 0.00 0.00 96 1008.1
20260504045833 15 225 3.2 6.4 0.00 0.00 0.00 96 1008.2
20260504045132 15 213 3.2 6.4 0.00 0.00 0.00 96 1008.1
20260504044433 15 231 4.8 6.4 0.00 0.00 0.00 96 1008.1
20260504043732 15 217 1.6 6.4 0.00 0.00 0.00 96 1008.2
20260504043032 15 226 1.6 6.4 0.00 0.00 0.00 96 1008.2
20260504042332 15 227 1.6 8.0 0.00 0.00 0.00 96 1008.1
20260504041632 15 236 3.2 8.0 0.00 0.00 0.00 96 1008.1
20260504040933 15 233 3.2 9.7 0.00 0.00 0.00 96 1008.1
20260504040315 15 235 6.4 9.7 0.00 0.00 0.00 96 1008.1
20260504035615 15 230 3.2 6.4 0.00 0.00 0.00 96 1008.1
20260504034832 15 221 3.2 4.8 0.00 0.00 0.00 96 1008.1
20260504034132 16 219 1.6 6.4 0.00 0.00 0.00 96 1008.1
20260504033433 16 218 3.2 6.4 0.00 0.00 0.00 96 1008.1
20260504032733 16 208 1.6 3.2 0.00 0.00 0.00 96 1008.1
20260504032032 16 165 0.0 4.8 0.00 0.00 0.00 97 1008.1
20260504031332 17 209 1.6 4.8 0.00 0.00 0.00 97 1008.1
20260504030715 17 215 3.2 4.8 0.00 0.00 0.00 97 1008.1
20260504025932 17 187 0.0 6.4 0.00 0.00 0.00 97 1008.1
20260504025232 18 174 1.6 6.4 0.00 0.00 0.00 97 1008.0
20260504024532 18 203 4.8 12.9 0.00 0.00 0.00 97 1008.0
20260504023832 18 227 8.0 12.9 0.00 0.00 0.00 97 1008.0
20260504023132 18 225 8.0 11.3 0.00 0.00 0.00 97 1008.1
20260504022432 18 208 4.8 8.0 0.00 0.00 0.00 97 1008.1
20260504021732 18 221 3.2 9.7 0.00 0.00 0.00 97 1008.2
20260504021032 19 182 3.2 11.3 0.00 0.00 0.00 97 1008.3
20260504020332 20 203 3.2 14.5 0.00 0.00 0.00 98 1008.4
20260504015632 21 201 4.8 11.3 0.00 0.00 0.00 98 1008.4
20260504014933 22 208 8.0 12.9 0.00 0.00 0.00 98 1008.4
20260504014315 22 187 4.8 12.9 0.00 0.00 0.00 99 1008.4
20260504013532 23 175 3.2 11.3 0.00 0.00 0.00 99 1008.4
20260504012833 25 213 6.4 11.3 0.00 0.00 0.00 99 1008.5
20260504012132 25 237 4.8 11.3 0.00 0.00 0.00 99 1008.6
20260504011515 25 219 3.2 9.7 0.00 0.00 0.00 99 1008.7
20260504010732 25 277 1.6 16.1 0.00 0.00 0.00 99 1008.8
20260504010033 25 0.0 11.3 0.00 0.00 0.00 99 1008.9
20260504005332 26 252 3.2 20.9 0.00 0.00 0.00 1009.0
20260504004632 25 321 0.0 12.9 0.00 0.00 0.00 99 1009.0
20260504003933 26 348 6.4 16.1 0.00 0.00 0.00 99 1009.1
20260504003232 26 297 1.6 14.5 0.00 0.00 0.00 1009.2
20260504002532 26 243 3.2 11.3 0.00 0.00 0.00 1009.3
20260504001832 25 255 3.2 11.3 0.00 0.00 0.00 99 1009.3
20260504001215 26 298 3.2 17.7 0.00 0.00 0.00 1009.3
20260504000432 26 291 1.6 14.5 0.00 0.00 0.00 1009.4
20260503235732 26 310 3.2 14.5 0.00 0.00 0.00 1009.4
20260503235032 26 275 4.8 16.1 0.00 0.00 0.00 1009.4
20260503234332 26 311 1.6 8.0 0.00 0.00 0.00 1009.5
20260503233632 27 269 3.2 12.9 0.00 0.00 0.00 1009.7
20260503232932 26 259 4.8 11.3 0.00 0.00 0.00 1009.7
20260503232233 26 275 3.2 17.7 0.00 0.00 0.00 1009.8
20260503231615 26 245 11.3 17.7 0.00 0.00 0.00 99 1009.9
20260503230832 26 304 3.2 11.3 0.00 0.00 0.00 1010.0
20260503230132 25 298 3.2 22.5 0.00 0.00 0.00 99 1010.1
20260503225515 25 348 9.7 17.7 0.00 0.00 0.00 99 1010.1
20260503224732 25 297 1.6 12.9 0.00 0.00 0.00 99 1010.2
20260503224032 25 334 6.4 14.5 0.00 0.00 0.00 99 1010.3
20260503223332 25 293 3.2 16.1 0.00 0.00 0.00 99 1010.4
20260503222632 25 345 11.3 17.7 0.00 0.00 0.00 99 1010.5
20260503221932 25 319 4.8 22.5 0.00 0.00 0.00 99 1010.6
20260503221233 25 327 8.0 14.5 0.00 0.00 0.00 99 1010.7
20260503220532 25 311 4.8 9.7 0.00 0.00 0.00 99 1010.7
20260503215832 25 298 3.2 14.5 0.00 0.00 0.00 99 1010.8
20260503215132 25 260 4.8 14.5 0.00 0.00 0.00 99 1010.9
20260503214433 25 317 3.2 22.5 0.00 0.00 0.00 99 1011.0
20260503213732 26 273 3.2 16.1 0.00 0.00 0.00 99 1011.1
20260503213033 26 342 6.4 19.3 0.00 0.00 0.00 1011.2
20260503212332 25 260 3.2 17.7 0.00 0.00 0.00 99 1011.1
20260503211633 25 253 6.4 17.7 0.00 0.00 0.00 99 1011.2
20260503210933 26 334 4.8 9.7 0.00 0.00 0.00 99 1011.2
20260503210232 25 305 3.2 9.7 0.00 0.00 0.00 99 1011.4
20260503205532 25 248 3.2 11.3 0.00 0.00 0.00 99 1011.5
20260503204832 25 313 4.8 11.3 0.00 0.00 0.00 99 1011.6
20260503204132 24 312 3.2 16.1 0.00 0.00 0.00 99 1011.7
20260503203433 24 12 3.2 12.9 0.00 0.00 0.00 99 1011.7
20260503202733 23 309 3.2 8.0 0.00 0.00 0.00 99 1011.9
20260503202032 23 289 1.6 8.0 0.00 0.00 0.00 99 1012.0
20260503201332 23 294 3.2 22.5 0.00 0.00 0.00 99 1012.0
20260503200632 23 300 3.2 8.0 0.00 0.00 0.00 99 1012.1
20260503195933 23 295 4.8 12.9 0.00 0.00 0.00 99 1012.2
20260503195232 23 314 6.4 22.5 0.00 0.00 0.00 99 1012.3
20260503194532 22 298 3.2 14.5 0.00 0.00 0.00 99 1012.3
20260503193832 23 336 9.7 17.7 0.00 0.00 0.00 99 1012.3
20260503193132 23 296 6.4 27.4 0.00 0.00 0.00 99 1012.3
20260503192432 23 290 3.2 27.4 0.00 0.00 0.00 99 1012.3
20260503191733 23 275 8.0 29.0 0.00 0.00 0.00 99 1012.2
20260503191115 24 244 16.1 29.0 0.00 0.00 0.00 99 1012.3